Location: Laterina
(43.5167°N, 11.7167°E)
Time: 01:40:04
(UTC+00:00)

HJ-1C - Visible Passes

Search period start: 23 January 2021 00:00
Search period end: 02 February 2021 00:00
Orbit: 431 x 441 km, 97.1° (Epoch: 22 January)

Date Brightness Start Highest point End Pass type
(mag) Time Alt. Az. Time Alt. Az. Time Alt. Az.
25 Jan 6.7 06:07:03 10° ENE 06:08:54 14° E 06:10:42 10° SE visible
25 Jan 5.7 18:14:06 16° N 18:14:06 16° N 18:14:50 10° N visible
26 Jan 5.2 17:34:02 16° NNE 17:34:02 16° NNE 17:35:06 10° NNE visible
27 Jan 5.2 18:27:15 24° NNW 18:27:15 24° NNW 18:28:46 10° NNW visible
28 Jan 4.3 17:47:06 29° NE 17:47:06 29° NE 17:49:21 10° N visible
28 Jan 6.9 19:20:26 10° WNW 19:20:26 10° WNW 19:20:29 10° WNW visible
29 Jan 5.3 17:06:55 12° ENE 17:07:17 12° ENE 17:08:41 10° NE visible
29 Jan 5.0 18:40:14 33° WNW 18:40:14 33° WNW 18:42:36 10° NNW visible
30 Jan 3.4 17:59:58 53° E 18:00:09 54° ENE 18:03:27 10° N visible
31 Jan 4.9 17:19:37 14° E 17:21:06 17° ENE 17:23:24 10° NNE visible
31 Jan 5.6 18:52:56 25° WSW 18:53:24 26° W 18:56:16 10° NW visible
01 Feb 3.2 18:12:26 28° SSE 18:14:03 87° ENE 18:17:25 10° N visible
